Weather History for Hatteras, NC

Change the Weather History Date:

Thursday, September 12, 2013

  Actual Average Record
Temperature  
Mean Temperature 78 °F 76 °F  
Max Temperature 122 °F 81 °F 88 °F (2011)
Min Temperature 71 °F 70 °F 52 °F (1976)
Degree Days  
Heating Degree Days 0 0  
Month to date heating degree days 0 0  
Since 1 July heating degree days 0 0  
Cooling Degree Days 13 10  
Month to date cooling degree days 137 137  
Year to date cooling degree days 1681 1443  
Growing Degree Days 28 (Base 50)    
Moisture  
Dew Point 70 °F    
Average Humidity 47    
Maximum Humidity 93    
Minimum Humidity 0    
Precipitation  
Precipitation 0.00 in 0.23 in 2.53 in (1930)
Month to date precipitation 1.33 2.70  
Year to date precipitation 32.53 39.89  
Snow  
Snow 0.00 in - - ()
Month to date snowfall 0.0  
Since 1 July snowfall 0.0  
Snow Depth 0.00 in    
Sea Level Pressure  
Sea Level Pressure 29.97 in    
Wind  
Wind Speed 6 mph (SW)    
Max Wind Speed 15 mph    
Max Gust Speed 21 mph    
Visibility 10 miles    
Events      
T = Trace of Precipitation, MM = Missing Value Source: NWS Daily Summary

Daily Weather History Graph

Daily Weather History Graph

Search for Another Location

Airport:

Trip Planner

Search our weather history database for the weather conditions in past years. The results will help you decide how hot, cold, wet, or windy it might be!

Date:

Astronomy

Sep. 12, 2013 Rise Set
Actual Time 6:43 AM EDT 7:13 PM EDT
Civil Twilight 6:17 AM EDT 7:38 PM EDT
Nautical Twilight 5:47 AM EDT 8:08 PM EDT
Astronomical Twilight 5:17 AM EDT 8:39 PM EDT
Moon 1:54 PM EDT (9/12) No Moon Set
Length of Visible Light 13h 21m
Length of Day
12h 30m
Waxing Crescent, 50% of the Moon is Illuminated
Sep 12
Waxing Crescent
Sep 12
First Quarter
Sep 19
Full
Sep 26
Last Quarter
Oct 4
New

Hourly Weather History & Observations

Time (EDT) Temp. Heat Index Dew Point Humidity Pressure Visibility Wind Dir Wind Speed Gust Speed Precip Events Conditions
12:51 AM 73.0 °F - 69.1 °F 87% 30.09 in 10.0 mi Calm Calm - N/A   Clear
1:51 AM 73.0 °F - 69.1 °F 87% 30.07 in 8.0 mi Calm Calm - N/A   Clear
2:51 AM 73.9 °F - 70.0 °F 87% 30.06 in 10.0 mi Calm Calm - N/A   Clear
3:51 AM 73.0 °F - 70.0 °F 90% 30.05 in 10.0 mi Calm Calm - N/A   Partly Cloudy
4:51 AM 72.0 °F - 68.0 °F 87% 30.04 in 9.0 mi Calm Calm - N/A   Clear
5:51 AM 72.0 °F - 69.1 °F 91% 30.03 in 10.0 mi West 3.5 mph - N/A   Clear
6:51 AM 73.0 °F - 69.1 °F 87% 30.04 in 10.0 mi West 3.5 mph - N/A   Clear
7:51 AM 75.9 °F - 71.1 °F 85% 30.04 in 10.0 mi West 3.5 mph - N/A   Clear
8:51 AM 80.1 °F 83.6 °F 71.1 °F 74% 30.03 in 10.0 mi West 3.5 mph - N/A   Clear
9:51 AM 82.0 °F 85.9 °F 70.0 °F 67% 30.03 in 10.0 mi West 3.5 mph - N/A   Clear
10:51 AM 84.0 °F 87.8 °F 69.1 °F 61% 30.02 in 10.0 mi WNW 3.5 mph - N/A   Partly Cloudy
11:51 AM - - - N/A% 30.01 in 10.0 mi Variable 3.5 mph - N/A   Scattered Clouds
12:04 PM 84.2 °F 88.4 °F 69.8 °F 62% 30.00 in 10.0 mi Variable 3.5 mph - N/A   Mostly Cloudy
12:41 PM 84.2 °F 89.6 °F 71.6 °F 66% 29.99 in 10.0 mi SSW 6.9 mph - N/A   Scattered Clouds
12:51 PM 84.9 °F 90.1 °F 71.1 °F 63% 29.99 in 10.0 mi SSW 5.8 mph - N/A   Partly Cloudy
1:51 PM 82.9 °F 87.0 °F 70.0 °F 65% 29.97 in 10.0 mi SSW 5.8 mph - N/A   Clear
2:51 PM 82.0 °F 85.9 °F 70.0 °F 67% 29.95 in 10.0 mi SSW 6.9 mph - N/A   Clear
3:51 PM 84.0 °F 88.4 °F 70.0 °F 63% 29.92 in 10.0 mi SSW 9.2 mph - N/A   Clear
4:51 PM 84.0 °F 88.4 °F 70.0 °F 63% 29.88 in 10.0 mi SSW 8.1 mph - N/A   Clear
5:51 PM 82.0 °F 85.9 °F 70.0 °F 67% 29.87 in 10.0 mi SSW 11.5 mph - N/A   Clear
6:51 PM 81.0 °F 83.8 °F 68.0 °F 65% 29.86 in 10.0 mi SSW 10.4 mph - N/A   Clear
7:51 PM 80.1 °F 83.6 °F 71.1 °F 74% 29.87 in 10.0 mi SW 11.5 mph - N/A   Clear
8:51 PM 80.1 °F 83.8 °F 72.0 °F 76% 29.86 in 10.0 mi SW 11.5 mph - N/A   Clear
9:51 PM 79.0 °F - 72.0 °F 79% 29.86 in 10.0 mi SW 12.7 mph 19.6 mph N/A   Clear
10:51 PM 80.1 °F 83.8 °F 72.0 °F 76% 29.85 in 10.0 mi WSW 15.0 mph 20.7 mph N/A   Clear
11:51 PM 80.1 °F 83.8 °F 72.0 °F 76% 29.82 in 10.0 mi SW 10.4 mph 18.4 mph N/A   Clear